Tracking 21076 objects as of 8-Aug-2020
HD Live streaming from Space Station
objects crossing your sky now

CZ-3 DEB

Track CZ-3 DEB now!


NORAD ID: 29447
Int'l Code: 1986-010F
Perigee: 460.3 km
Apogee: 35,162.4 km
Inclination: 30.4 °
Period: 623.7 minutes
Semi major axis: 24182 km
RCS: 0.0367 m2 (small)
Launch date: February 1, 1986
Source: People's Republic of China (PRC)
Launch site: Xichang Space Center, China (XSC)

Note: This is SATELLITE DEBRIS
aabbcc
Your satellite tracking list
Your tracking list is empty




NASA's NSSDC Master Catalog

Two Line Element Set (TLE):
1 29447U 86010F   20220.02188051 +.00000405 +00000-0 +17517-2 0  9994
2 29447 030.3796 139.1499 7175097 122.1334 326.6717 02.30863925059693
Source of the keplerian elements: AFSPC